• In Österreich
  • Länderverzeichnis
  • Für 7 Tage
  • Wassertemperatur
  • Satellitenkarten
  • Wetterkarte
  • News
  • Widgets
  • user-avatar
    Anmelden

    Stündliche Wetter Chinsali

    Heute, 17 August, Freitag

    Zeit Temperatur Niederschläge Wind Luftdruck Luftfeuchtigkeit
    00:00 +16°C° 0 mm 2 m/S 648 mmHg 52%
    01:00 +15°C° 0 mm 2 m/S 648 mmHg 57%
    02:00 +14°C° 0 mm 2 m/S 648 mmHg 61%
    03:00 +13°C° 0 mm 2 m/S 648 mmHg 64%
    04:00 +13°C° 0 mm 1 m/S 648 mmHg 66%
    05:00 +13°C° 0 mm 1 m/S 647 mmHg 68%
    06:00 +15°C° 0 mm 2 m/S 648 mmHg 62%
    07:00 +17°C° 0 mm 2 m/S 649 mmHg 55%
    08:00 +19°C° 0 mm 2 m/S 650 mmHg 46%
    09:00 +23°C° 0 mm 2 m/S 651 mmHg 38%
    10:00 +25°C° 0 mm 2 m/S 651 mmHg 31%
    11:00 +28°C° 0 mm 2 m/S 651 mmHg 23%
    12:00 +29°C° 0 mm 2 m/S 651 mmHg 21%
    13:00 +30°C° 0 mm 2 m/S 650 mmHg 19%
    14:00 +31°C° 0 mm 2 m/S 650 mmHg 17%
    15:00 +30°C° 0 mm 2 m/S 649 mmHg 19%
    16:00 +29°C° 0 mm 2 m/S 649 mmHg 20%
    17:00 +28°C° 0 mm 2 m/S 648 mmHg 22%
    18:00 +25°C° 0 mm 2 m/S 648 mmHg 26%
    19:00 +23°C° 0 mm 2 m/S 648 mmHg 30%
    20:00 +20°C° 0 mm 2 m/S 647 mmHg 34%
    21:00 +19°C° 0 mm 2 m/S 647 mmHg 38%
    22:00 +18°C° 0 mm 2 m/S 648 mmHg 41%
    23:00 +18°C° 0 mm 3 m/S 648 mmHg 45%

    Morgen, 18 August, Samstag

    Zeit Temperatur Niederschläge Wind Luftdruck Luftfeuchtigkeit
    00:00 +17°C° 0 mm 2 m/S 647 mmHg 49%
    01:00 +16°C° 0 mm 2 m/S 647 mmHg 54%
    02:00 +15°C° 0 mm 2 m/S 647 mmHg 58%
    03:00 +15°C° 0 mm 2 m/S 647 mmHg 61%
    04:00 +14°C° 0 mm 2 m/S 646 mmHg 64%
    05:00 +14°C° 0 mm 2 m/S 646 mmHg 66%
    06:00 +16°C° 0 mm 2 m/S 647 mmHg 60%
    07:00 +18°C° 0 mm 2 m/S 648 mmHg 54%
    08:00 +20°C° 0 mm 3 m/S 649 mmHg 48%
    09:00 +22°C° 0 mm 3 m/S 649 mmHg 40%
    10:00 +26°C° 0 mm 3 m/S 650 mmHg 31%
    11:00 +29°C° 0 mm 3 m/S 650 mmHg 23%
    12:00 +29°C° 0 mm 3 m/S 650 mmHg 21%
    13:00 +30°C° 0 mm 3 m/S 650 mmHg 18%
    14:00 +31°C° 0 mm 3 m/S 649 mmHg 16%
    15:00 +30°C° 0 mm 3 m/S 649 mmHg 18%
    16:00 +29°C° 0 mm 3 m/S 648 mmHg 20%
    17:00 +28°C° 0 mm 3 m/S 648 mmHg 21%
    18:00 +26°C° 0 mm 3 m/S 648 mmHg 24%
    19:00 +23°C° 0 mm 4 m/S 648 mmHg 28%
    20:00 +21°C° 0 mm 4 m/S 648 mmHg 31%
    21:00 +20°C° 0 mm 4 m/S 648 mmHg 35%
    22:00 +20°C° 0 mm 4 m/S 648 mmHg 39%
    23:00 +19°C° 0 mm 4 m/S 649 mmHg 43%

    übermorgen, 19 August, Sonntag

    Zeit Temperatur Niederschläge Wind Luftdruck Luftfeuchtigkeit
    00:00 +18°C° 0 mm 3 m/S 648 mmHg 47%
    01:00 +18°C° 0 mm 3 m/S 648 mmHg 50%
    02:00 +17°C° 0 mm 3 m/S 647 mmHg 53%
    03:00 +17°C° 0 mm 3 m/S 647 mmHg 55%
    04:00 +16°C° 0 mm 3 m/S 647 mmHg 58%
    05:00 +16°C° 0 mm 3 m/S 647 mmHg 60%
    06:00 +17°C° 0 mm 3 m/S 648 mmHg 53%
    07:00 +19°C° 0 mm 4 m/S 649 mmHg 46%
    08:00 +21°C° 0 mm 5 m/S 650 mmHg 40%
    09:00 +23°C° 0 mm 5 m/S 650 mmHg 34%
    10:00 +25°C° 0 mm 5 m/S 650 mmHg 29%
    11:00 +27°C° 0 mm 4 m/S 651 mmHg 24%
    12:00 +28°C° 0 mm 4 m/S 650 mmHg 22%
    13:00 +29°C° 0 mm 4 m/S 650 mmHg 20%
    14:00 +30°C° 0 mm 4 m/S 649 mmHg 18%
    15:00 +29°C° 0 mm 4 m/S 649 mmHg 19%
    16:00 +29°C° 0 mm 4 m/S 648 mmHg 20%
    17:00 +28°C° 0 mm 4 m/S 648 mmHg 22%
    18:00 +26°C° 0 mm 4 m/S 648 mmHg 25%
    19:00 +23°C° 0 mm 4 m/S 648 mmHg 28%
    20:00 +21°C° 0 mm 4 m/S 648 mmHg 31%
    21:00 +20°C° 0 mm 4 m/S 648 mmHg 35%
    22:00 +19°C° 0 mm 4 m/S 649 mmHg 40%
    23:00 +19°C° 0 mm 4 m/S 649 mmHg 44%

    20 August, Montag

    Zeit Temperatur Niederschläge Wind Luftdruck Luftfeuchtigkeit
    00:00 +18°C° 0 mm 4 m/S 648 mmHg 48%
    01:00 +17°C° 0 mm 3 m/S 648 mmHg 51%
    02:00 +17°C° 0 mm 3 m/S 647 mmHg 55%
    03:00 +16°C° 0 mm 3 m/S 647 mmHg 57%
    04:00 +16°C° 0 mm 3 m/S 647 mmHg 60%
    05:00 +14°C° 0 mm 3 m/S 647 mmHg 62%
    06:00 +16°C° 0 mm 3 m/S 648 mmHg 59%
    07:00 +18°C° 0 mm 3 m/S 649 mmHg 55%
    08:00 +19°C° 0 mm 3 m/S 650 mmHg 51%
    09:00 +21°C° 0 mm 3 m/S 650 mmHg 44%
    10:00 +25°C° 0 mm 3 m/S 650 mmHg 36%
    11:00 +27°C° 0 mm 3 m/S 651 mmHg 29%
    12:00 +29°C° 0 mm 3 m/S 650 mmHg 26%
    13:00 +30°C° 0 mm 2 m/S 649 mmHg 23%
    14:00 +31°C° 0 mm 2 m/S 649 mmHg 20%
    15:00 +30°C° 0 mm 2 m/S 648 mmHg 21%
    16:00 +29°C° 0 mm 2 m/S 648 mmHg 21%
    17:00 +29°C° 0 mm 2 m/S 647 mmHg 22%
    18:00 +26°C° 0 mm 2 m/S 647 mmHg 26%
    19:00 +24°C° 0 mm 3 m/S 647 mmHg 29%
    20:00 +21°C° 0 mm 3 m/S 648 mmHg 33%
    21:00 +20°C° 0 mm 3 m/S 648 mmHg 37%
    22:00 +20°C° 0 mm 3 m/S 648 mmHg 42%
    23:00 +19°C° 0 mm 3 m/S 648 mmHg 46%

    21 August, Dienstag

    Zeit Temperatur Niederschläge Wind Luftdruck Luftfeuchtigkeit
    00:00 +18°C° 0 mm 3 m/S 647 mmHg 50%
    01:00 +17°C° 0 mm 3 m/S 647 mmHg 54%
    02:00 +17°C° 0 mm 2 m/S 646 mmHg 58%
    03:00 +16°C° 0 mm 2 m/S 646 mmHg 61%
    04:00 +15°C° 0 mm 2 m/S 646 mmHg 64%
    05:00 +15°C° 0 mm 1 m/S 646 mmHg 66%
    06:00 +17°C° 0 mm 2 m/S 647 mmHg 60%
    07:00 +18°C° 0 mm 2 m/S 648 mmHg 54%
    08:00 +20°C° 0 mm 2 m/S 649 mmHg 47%
    09:00 +24°C° 0 mm 2 m/S 650 mmHg 40%
    10:00 +26°C° 0 mm 2 m/S 650 mmHg 32%
    11:00 +29°C° 0 mm 3 m/S 650 mmHg 25%
    12:00 +31°C° 0 mm 2 m/S 650 mmHg 22%
    13:00 +33°C° 0 mm 1 m/S 650 mmHg 20%
    14:00 +33°C° 0 mm 0 m/S 650 mmHg 17%
    15:00 +33°C° 0 mm 1 m/S 649 mmHg 18%
    16:00 +32°C° 0 mm 1 m/S 648 mmHg 20%
    17:00 +30°C° 0 mm 1 m/S 647 mmHg 21%
    18:00 +28°C° 0 mm 1 m/S 647 mmHg 24%
    19:00 +25°C° 0 mm 1 m/S 647 mmHg 27%
    20:00 +23°C° 0 mm 2 m/S 647 mmHg 30%
    21:00 +21°C° 0 mm 2 m/S 647 mmHg 35%
    22:00 +20°C° 0 mm 3 m/S 647 mmHg 40%
    23:00 +20°C° 0 mm 3 m/S 647 mmHg 45%

    22 August, Mittwoch

    Zeit Temperatur Niederschläge Wind Luftdruck Luftfeuchtigkeit
    00:00 +19°C° 0 mm 3 m/S 647 mmHg 49%
    01:00 +18°C° 0 mm 2 m/S 646 mmHg 53%
    02:00 +18°C° 0 mm 1 m/S 646 mmHg 57%
    03:00 +16°C° 0 mm 1 m/S 646 mmHg 59%
    04:00 +16°C° 0 mm 1 m/S 646 mmHg 61%
    05:00 +15°C° 0 mm 1 m/S 646 mmHg 63%
    06:00 +17°C° 0 mm 2 m/S 647 mmHg 58%
    07:00 +19°C° 0 mm 2 m/S 648 mmHg 52%
    08:00 +21°C° 0 mm 2 m/S 649 mmHg 47%
    09:00 +25°C° 0 mm 2 m/S 649 mmHg 39%
    10:00 +28°C° 0 mm 2 m/S 650 mmHg 32%
    11:00 +30°C° 0 mm 2 m/S 650 mmHg 25%
    12:00 +32°C° 0 mm 2 m/S 650 mmHg 22%
    13:00 +34°C° 0 mm 1 m/S 649 mmHg 20%
    14:00 +36°C° 0 mm 1 m/S 649 mmHg 17%
    15:00 +34°C° 0 mm 1 m/S 648 mmHg 18%
    16:00 +32°C° 0 mm 1 m/S 648 mmHg 20%
    17:00 +31°C° 0 mm 1 m/S 647 mmHg 21%
    18:00 +29°C° 0 mm 2 m/S 647 mmHg 24%
    19:00 +27°C° 0 mm 2 m/S 647 mmHg 27%
    20:00 +25°C° 0 mm 2 m/S 647 mmHg 29%
    21:00 +24°C° 0 mm 2 m/S 647 mmHg 32%
    22:00 +22°C° 0 mm 3 m/S 647 mmHg 35%
    23:00 +21°C° 0 mm 3 m/S 647 mmHg 38%
    Mehr zeigen